QPF
0.00 0.00 0.00 0.00 0.00 0.01 0.01 0.01 0.00 0.00 0.00 0.00 0.00 0.00 0.00 0.00 0.00 0.00 0.00 0.00 0.00 0.00 0.00 0.00 0.00 0.00 0.00 0.00 0.00 0.00 0.00 0.00 0.00 0.00 0.00 0.00 0.00 0.00 0.00 0.00 0.00 0.00 0.00 0.00
0.00 0.00 0.00 0.00 0.00 0.01 0.01 0.00 0.00 0.00 0.00 0.00 0.00 0.00 0.00 0.00 0.00 0.00 0.00 0.00 0.00 0.00 0.00 0.00 0.00 0.00 0.00 0.00 0.00 0.00 0.00 0.00 0.00 0.00 0.00 0.00 0.00 0.00 0.00 0.00 0.00 0.00 0.00 0.00
0.00 0.00 0.00 0.00 0.00 0.01 0.01 0.00 0.00 0.00 0.00 0.00 0.00 0.00 0.00 0.00 0.00 0.00 0.00 0.00 0.00 0.00 0.00 0.00 0.00 0.00 0.00 0.00 0.00 0.00 0.00 0.00 0.00 0.00 0.00 0.00 0.00 0.00 0.00 0.00 0.00 0.00 0.00 0.00
0.00 0.00 0.00 0.00 0.00 0.01 0.02 0.01 0.00 0.00 0.00 0.00 0.00 0.00 0.00 0.00 0.00 0.00 0.00 0.00 0.00 0.00 0.00 0.00 0.00 0.00 0.00 0.00 0.00 0.00 0.00 0.00 0.00 0.00 0.00 0.00 0.00 0.00 0.00 0.00 0.00 0.00 0.00 0.00
0.01 0.01 0.01 0.00 0.00 0.01 0.01 0.00 0.00 0.00 0.00 0.00 0.00 0.00 0.00 0.00 0.00 0.00 0.00 0.00 0.00 0.00 0.00 0.00 0.00 0.00 0.00 0.00 0.00 0.00 0.00 0.00 0.00 0.00 0.00 0.00 0.00 0.00 0.00 0.00 0.00 0.00 0.00 0.00
0.00 0.00 0.01 0.02 0.01 0.02 0.01 0.00 0.00 0.00 0.00 0.00 0.00 0.00 0.00 0.00 0.00 0.00 0.00 0.00 0.00 0.00 0.00 0.00 0.00 0.00 0.00 0.00 0.00 0.00 0.00 0.00 0.00 0.00 0.00 0.00 0.00 0.00 0.00 0.00 0.00 0.00 0.00 0.00
0.00 0.00 0.00 0.01 0.01 0.03 0.01 0.00 0.01 0.00 0.00 0.00 0.00 0.01 0.01 0.00 0.00 0.00 0.00 0.00 0.00 0.00 0.00 0.00 0.00 0.00 0.00 0.00 0.00 0.00 0.00 0.00 0.00 0.00 0.00 0.00 0.00 0.00 0.00 0.00 0.00 0.00 0.00 0.00
0.00 0.00 0.00 0.00 0.01 0.02 0.02 0.02 0.03 0.00 0.00 0.00 0.00 0.00 0.00 0.00 0.01 0.01 0.00 0.00 0.00 0.00 0.00 0.00 0.00 0.00 0.00 0.00 0.00 0.00 0.00 0.00 0.01 0.00 0.00 0.00 0.00 0.00 0.00 0.00 0.00 0.00 0.00 0.00
0.00 0.00 0.00 0.00 0.00 0.02 0.04 0.02 0.06 0.02 0.01 0.00 0.00 0.00 0.00 0.00 0.00 0.00 0.00 0.00 0.00 0.00 0.00 0.00 0.01 0.00 0.00 0.00 0.00 0.00 0.00 0.00 0.01 0.00 0.01 0.00 0.00 0.00 0.00 0.00 0.00 0.00 0.00 0.00
0.01 0.00 0.00 0.00 0.00 0.00 0.02 0.02 0.03 0.04 0.01 0.00 0.00 0.01 0.01 0.00 0.00 0.00 0.00 0.00 0.00 0.00 0.00 0.01 0.01 0.00 0.00 0.00 0.00 0.00 0.00 0.00 0.00 0.00 0.00 0.00 0.00 0.00 0.00 0.00 0.00 0.00 0.00 0.00
0.02 0.01 0.01 0.00 0.00 0.00 0.01 0.01 0.01 0.03 0.01 0.00 0.00 0.02 0.01 0.00 0.00 0.00 0.00 0.00 0.00 0.00 0.00 0.00 0.00 0.00 0.00 0.00 0.00 0.00 0.00 0.00 0.00 0.00 0.00 0.00 0.00 0.00 0.00 0.00 0.00 0.00 0.00 0.00
0.01 0.02 0.01 0.01 0.00 0.00 0.02 0.01 0.00 0.03 0.03 0.01 0.00 0.00 0.00 0.00 0.00 0.00 0.00 0.00 0.00 0.00 0.00 0.00 0.00 0.00 0.00 0.00 0.00 0.00 0.00 0.00 0.00 0.00 0.00 0.00 0.00 0.00 0.00 0.00 0.00 0.00 0.00 0.00
0.01 0.02 0.03 0.01 0.00 0.00 0.03 0.02 0.00 0.02 0.02 0.00 0.00 0.00 0.00 0.00 0.00 0.00 0.00 0.00 0.00 0.00 0.00 0.00 0.00 0.00 0.00 0.00 0.00 0.00 0.00 0.02 0.01 0.00 0.00 0.00 0.00 0.00 0.00 0.00 0.00 0.00 0.00 0.01
0.01 0.04 0.09 0.06 0.02 0.00 0.04 0.02 0.00 0.01 0.02 0.01 0.00 0.00 0.00 0.00 0.00 0.00 0.00 0.00 0.00 0.01 0.00 0.00 0.00 0.00 0.00 0.00 0.00 0.00 0.01 0.02 0.01 0.00 0.00 0.00 0.00 0.00 0.00 0.00 0.00 0.00 0.00 0.00
0.01 0.02 0.04 0.04 0.04 0.03 0.05 0.02 0.00 0.01 0.01 0.00 0.00 0.00 0.00 0.00 0.00 0.00 0.00 0.00 0.00 0.00 0.00 0.00 0.00 0.00 0.00 0.00 0.00 0.00 0.00 0.00 0.00 0.00 0.00 0.00 0.00 0.00 0.00 0.00 0.00 0.00 0.00 0.00
0.01 0.02 0.03 0.03 0.03 0.07 0.10 0.03 0.00 0.02 0.04 0.03 0.01 0.00 0.00 0.00 0.00 0.00 0.00 0.00 0.00 0.00 0.00 0.00 0.00 0.00 0.00 0.00 0.00 0.00 0.00 0.00 0.00 0.00 0.00 0.00 0.00 0.00 0.00 0.00 0.00 0.00 0.00 0.00
0.01 0.04 0.04 0.05 0.04 0.10 0.03 0.01 0.02 0.00 0.02 0.02 0.01 0.00 0.00 0.00 0.00 0.00 0.00 0.00 0.00 0.00 0.00 0.00 0.00 0.00 0.00 0.00 0.00 0.00 0.00 0.00 0.00 0.00 0.00 0.00 0.00 0.00 0.00 0.00 0.00 0.00 0.00 0.00
0.03 0.08 0.05 0.04 0.04 0.06 0.02 0.01 0.02 0.02 0.02 0.00 0.01 0.00 0.00 0.00 0.00 0.00 0.00 0.00 0.00 0.00 0.00 0.00 0.00 0.00 0.00 0.00 0.00 0.00 0.00 0.00 0.00 0.00 0.00 0.00 0.00 0.00 0.00 0.00 0.00 0.00 0.00 0.00
0.08 0.07 0.08 0.11 0.09 0.04 0.02 0.01 0.02 0.02 0.01 0.00 0.00 0.00 0.00 0.00 0.00 0.00 0.00 0.00 0.00 0.00 0.00 0.00 0.00 0.00 0.00 0.00 0.00 0.00 0.00 0.00 0.00 0.00 0.00 0.00 0.00 0.00 0.00 0.00 0.00 0.00 0.00 0.00
0.07 0.03 0.03 0.01 0.01 0.02 0.04 0.01 0.00 0.00 0.00 0.00 0.00 0.00 0.00 0.00 0.00 0.00 0.00 0.00 0.00 0.00 0.00 0.00 0.01 0.00 0.00 0.00 0.00 0.00 0.00 0.00 0.00 0.00 0.00 0.00 0.00 0.00 0.00 0.00 0.00 0.00 0.00 0.00
0.02 0.00 0.00 0.01 0.01 0.01 0.00 0.00 0.00 0.00 0.00 0.00 0.00 0.00 0.00 0.00 0.00 0.00 0.00 0.00 0.00 0.00 0.00 0.00 0.00 0.00 0.00 0.00 0.00 0.00 0.00 0.00 0.00 0.00 0.00 0.00 0.00 0.00 0.00 0.00 0.00 0.00 0.00 0.00
0.00 0.00 0.00 0.01 0.00 0.00 0.00 0.00 0.00 0.00 0.00 0.00 0.00 0.00 0.00 0.00 0.00 0.00 0.00 0.00 0.00 0.00 0.00 0.00 0.00 0.00 0.00 0.00 0.00 0.00 0.00 0.00 0.00 0.00 0.00 0.00 0.00 0.00 0.00 0.00 0.00 0.00 0.00 0.00
0.00 0.00 0.00 0.00 0.00 0.00 0.00 0.00 0.00 0.00 0.00 0.00 0.00 0.00 0.00 0.00 0.00 0.00 0.00 0.00 0.00 0.00 0.00 0.00 0.00 0.00 0.00 0.01 0.01 0.00 0.00 0.00 0.00 0.00 0.00 0.00 0.00 0.00 0.00 0.00 0.00 0.00 0.00 0.00
0.00 0.00 0.00 0.00 0.00 0.00 0.00 0.00 0.00 0.00 0.00 0.00 0.00 0.00 0.00 0.00 0.00 0.00 0.00 0.00 0.00 0.00 0.00 0.00 0.00 0.00 0.00 0.00 0.00 0.00 0.00 0.00 0.00 0.00 0.00 0.00 0.00 0.00 0.00 0.00 0.00 0.00 0.00 0.00
0.00 0.00 0.00 0.00 0.00 0.00 0.00 0.00 0.00 0.00 0.00 0.00 0.00 0.00 0.00 0.00 0.00 0.00 0.00 0.00 0.00 0.00 0.00 0.00 0.00 0.00 0.00 0.00 0.00 0.00 0.00 0.00 0.00 0.00 0.00 0.00 0.00 0.00 0.00 0.00 0.00 0.00 0.00 0.00
0.00 0.00 0.00 0.00 0.00 0.00 0.00 0.00 0.00 0.00 0.00 0.00 0.00 0.00 0.00 0.00 0.00 0.00 0.00 0.00 0.00 0.00 0.00 0.00 0.00 0.00 0.00 0.00 0.00 0.00 0.00 0.00 0.00 0.00 0.00 0.00 0.00 0.00 0.00 0.00 0.00 0.00 0.00 0.00
0.00 0.00 0.00 0.00 0.00 0.00 0.00 0.00 0.00 0.00 0.00 0.00 0.00 0.00 0.00 0.00 0.00 0.00 0.00 0.00 0.00 0.00 0.00 0.00 0.00 0.00 0.00 0.00 0.00 0.00 0.00 0.00 0.00 0.00 0.00 0.00 0.00 0.00 0.00 0.00 0.00 0.00 0.00 0.00
MSLP
1021.85 1021.73 1021.44 1021.65 1021.74 1021.57 1021.60 1022.15 1022.34 1021.88 1021.97 1022.32 1021.49 1020.76 1020.07 1019.51 1018.91 1018.58 1018.56 1018.26 1017.65 1017.25 1016.82 1016.39 1015.94 1015.17 1014.50 1014.22 1014.20 1014.08 1013.99 1014.18 1013.71 1013.41 1013.41 1013.14 1012.96 1013.05 1013.24 1013.64 1013.75 1013.85 1013.71 1010.69
1021.54 1021.47 1021.51 1021.65 1021.57 1021.51 1021.86 1021.77 1022.10 1021.96 1022.32 1021.28 1021.12 1020.72 1019.88 1019.45 1018.97 1018.37 1018.15 1017.80 1017.31 1017.04 1016.84 1016.75 1015.76 1015.23 1014.68 1014.38 1014.31 1014.14 1014.17 1014.41 1014.12 1014.04 1014.08 1013.63 1013.45 1013.63 1013.77 1014.05 1014.11 1013.58 1013.44 1011.11
1021.32 1021.11 1021.26 1021.41 1021.47 1021.45 1021.78 1021.86 1021.98 1021.81 1021.35 1021.06 1020.85 1020.05 1019.67 1019.13 1018.50 1018.26 1018.00 1017.51 1017.43 1017.35 1017.03 1016.67 1016.07 1015.57 1014.86 1014.49 1014.32 1014.23 1014.35 1014.58 1014.49 1014.32 1014.23 1014.35 1014.20 1014.10 1014.11 1014.17 1014.23 1013.59 1011.83 1011.59
1021.19 1021.03 1020.90 1021.08 1021.41 1021.36 1021.62 1021.59 1021.01 1020.78 1020.56 1020.20 1020.36 1019.79 1019.02 1018.35 1018.24 1017.91 1017.66 1017.35 1017.15 1017.15 1016.95 1016.62 1016.29 1015.88 1015.29 1014.76 1014.51 1014.52 1014.62 1014.77 1014.95 1014.72 1014.67 1014.64 1014.30 1014.05 1014.10 1013.90 1013.65 1013.44 1010.60 1011.20
1020.72 1020.68 1020.69 1020.85 1021.09 1021.15 1021.44 1021.20 1021.37 1020.88 1020.54 1020.02 1019.45 1018.99 1018.53 1018.27 1017.82 1017.52 1017.20 1016.97 1016.75 1016.90 1016.81 1016.74 1016.32 1015.95 1015.46 1014.90 1014.72 1014.77 1014.88 1014.87 1015.26 1015.30 1014.84 1014.69 1014.24 1014.01 1013.97 1013.70 1013.24 1012.54 1011.43 1009.94
1020.43 1020.47 1020.49 1020.53 1020.77 1021.00 1021.30 1021.34 1021.16 1020.89 1020.00 1019.62 1019.35 1018.24 1017.56 1017.50 1017.38 1017.47 1016.91 1016.71 1016.70 1016.67 1016.43 1016.31 1015.91 1015.58 1015.26 1014.94 1014.79 1014.74 1014.97 1015.20 1015.46 1015.06 1015.07 1014.67 1013.84 1013.27 1012.97 1012.26 1012.03 1012.07 1011.24 1009.35
1019.98 1019.99 1020.02 1020.37 1020.41 1020.55 1021.01 1021.23 1021.32 1020.91 1019.96 1019.38 1018.65 1018.09 1017.86 1017.61 1017.24 1017.22 1016.63 1016.70 1016.86 1016.40 1016.14 1015.95 1015.54 1015.18 1014.67 1014.61 1014.48 1014.61 1014.95 1015.03 1015.32 1015.35 1015.20 1014.12 1012.61 1012.40 1012.22 1011.94 1011.50 1011.33 1010.62 1009.76
1019.32 1019.49 1019.74 1019.83 1019.87 1020.05 1020.80 1020.90 1021.10 1021.04 1019.94 1019.17 1018.51 1017.94 1017.30 1017.10 1017.03 1016.66 1016.74 1016.28 1016.39 1016.82 1016.91 1016.50 1015.94 1015.24 1014.62 1014.10 1013.99 1014.16 1014.41 1014.82 1015.42 1014.91 1014.18 1012.85 1012.21 1011.50 1011.39 1011.30 1010.74 1010.47 1010.16 1009.52
1018.58 1018.76 1019.10 1019.29 1019.37 1019.62 1020.25 1020.47 1020.54 1020.44 1020.08 1018.38 1018.05 1017.62 1017.58 1017.17 1016.76 1016.55 1016.00 1015.98 1016.06 1016.86 1016.82 1016.69 1016.02 1015.30 1014.38 1013.88 1013.81 1013.76 1014.35 1014.83 1015.27 1014.86 1013.95 1012.49 1011.62 1011.29 1011.18 1011.08 1010.62 1010.57 1010.31 1010.00
1017.93 1018.18 1018.41 1018.65 1018.88 1019.16 1019.63 1019.97 1019.94 1020.22 1019.28 1017.93 1018.09 1017.46 1017.18 1017.11 1016.73 1016.39 1015.92 1015.64 1016.08 1016.19 1016.39 1016.20 1015.73 1015.24 1014.91 1014.45 1013.82 1013.93 1014.38 1014.74 1014.42 1013.95 1013.46 1012.05 1011.27 1010.92 1010.91 1011.00 1010.70 1010.31 1010.40 1010.29
1017.30 1017.48 1017.72 1018.03 1018.25 1018.54 1019.05 1019.18 1019.36 1019.61 1018.95 1017.94 1017.71 1017.16 1016.95 1016.71 1016.63 1016.37 1015.97 1015.90 1015.72 1015.82 1015.83 1015.62 1015.30 1014.96 1014.77 1014.53 1013.48 1013.13 1013.27 1013.60 1013.90 1013.68 1012.92 1011.57 1010.57 1010.88 1010.83 1010.26 1010.17 1010.29 1010.28 1010.23
1016.63 1016.82 1016.93 1017.17 1017.52 1017.81 1018.18 1018.74 1018.85 1018.94 1018.93 1017.53 1017.06 1016.73 1016.27 1016.36 1016.16 1016.60 1015.90 1015.29 1014.57 1014.57 1014.92 1015.07 1014.91 1014.73 1014.30 1013.68 1013.21 1012.71 1012.77 1012.37 1012.46 1012.57 1011.33 1010.52 1010.33 1010.25 1010.08 1010.19 1010.17 1010.08 1010.00 1009.85
1015.74 1015.94 1016.13 1016.29 1016.60 1016.95 1017.36 1018.03 1018.34 1018.68 1018.47 1017.45 1016.79 1015.54 1014.95 1015.28 1015.27 1015.32 1015.42 1014.75 1014.14 1014.11 1013.96 1014.34 1014.53 1014.41 1013.99 1013.58 1012.93 1012.43 1012.02 1011.82 1011.83 1011.85 1010.62 1010.22 1009.71 1009.59 1009.58 1009.84 1010.14 1009.82 1009.49 1009.52
1014.78 1015.07 1015.22 1015.45 1015.79 1016.15 1016.57 1017.47 1017.68 1018.15 1018.00 1017.07 1015.07 1014.07 1014.08 1013.49 1013.89 1014.25 1014.38 1014.62 1014.60 1014.17 1013.94 1014.16 1014.45 1014.27 1013.76 1013.25 1012.69 1012.27 1011.68 1011.42 1011.19 1011.15 1010.73 1010.46 1009.58 1009.26 1009.08 1009.11 1009.18 1008.94 1008.90 1008.90
1014.03 1014.41 1014.62 1014.81 1015.24 1015.65 1016.16 1016.81 1017.07 1017.24 1017.85 1016.41 1015.23 1014.43 1012.77 1012.90 1012.95 1013.38 1013.59 1014.05 1014.25 1014.07 1014.21 1014.25 1014.10 1013.82 1013.87 1013.33 1012.85 1011.46 1011.15 1010.71 1010.69 1009.73 1009.49 1009.46 1008.67 1008.69 1008.66 1008.75 1008.85 1008.76 1008.82 1008.72
1013.34 1013.82 1014.03 1014.40 1014.95 1015.36 1016.42 1016.82 1016.45 1016.68 1017.16 1017.45 1015.67 1014.01 1013.31 1012.91 1012.89 1012.90 1013.14 1013.52 1013.54 1013.39 1013.59 1013.77 1013.58 1013.40 1013.37 1012.73 1011.51 1010.21 1010.00 1009.79 1009.61 1009.00 1008.71 1008.88 1008.52 1008.51 1008.50 1008.47 1008.45 1008.44 1008.35 1008.61
1012.76 1013.16 1013.48 1013.92 1014.35 1015.16 1015.54 1015.45 1015.51 1015.55 1016.59 1017.02 1015.58 1013.66 1012.97 1012.85 1013.33 1013.20 1013.33 1013.43 1013.34 1013.35 1013.49 1013.56 1013.33 1013.16 1012.97 1012.20 1010.18 1009.42 1009.43 1009.13 1008.70 1008.63 1008.95 1008.65 1008.29 1008.09 1007.89 1008.09 1007.98 1008.01 1008.02 1008.25
1012.23 1012.57 1012.97 1013.37 1013.83 1014.73 1014.98 1014.60 1015.11 1015.62 1016.10 1016.49 1015.19 1013.47 1013.10 1012.84 1013.09 1013.22 1013.43 1013.39 1013.40 1013.29 1013.19 1013.31 1012.98 1012.95 1012.48 1010.79 1008.53 1008.38 1008.30 1008.12 1007.98 1007.77 1008.07 1007.78 1007.69 1007.75 1007.61 1007.62 1007.72 1007.80 1007.96 1008.31
1011.73 1012.14 1012.66 1013.49 1014.00 1014.19 1014.11 1014.26 1014.71 1015.61 1016.22 1015.20 1014.15 1013.11 1012.73 1012.65 1013.07 1013.30 1013.47 1013.44 1013.49 1013.45 1013.09 1012.76 1012.57 1011.73 1010.57 1007.70 1007.62 1007.52 1007.53 1007.60 1007.27 1007.17 1007.36 1007.47 1007.48 1007.18 1007.19 1007.39 1007.42 1007.64 1007.89 1008.36
1011.66 1012.28 1012.75 1013.25 1013.15 1013.04 1013.63 1014.74 1015.00 1014.83 1014.19 1013.91 1013.30 1012.90 1012.56 1012.46 1012.74 1013.21 1013.38 1013.21 1012.95 1012.81 1012.13 1011.87 1011.36 1009.68 1007.91 1007.40 1006.83 1006.76 1006.86 1006.91 1007.02 1007.13 1006.71 1006.91 1006.94 1006.88 1006.90 1006.90 1007.03 1007.29 1007.64 1008.23
1011.95 1012.54 1012.70 1012.62 1012.62 1013.25 1013.51 1012.90 1012.99 1012.78 1013.00 1012.86 1012.52 1012.62 1012.39 1012.62 1012.54 1012.68 1012.96 1012.78 1012.72 1012.20 1011.50 1011.43 1010.27 1008.62 1007.16 1007.08 1006.61 1006.32 1006.27 1006.28 1006.25 1006.27 1006.10 1006.32 1006.44 1006.52 1006.74 1007.04 1007.18 1007.49 1008.10 1008.59
1011.99 1012.25 1012.67 1012.50 1012.58 1012.61 1012.23 1012.11 1012.20 1012.07 1011.91 1012.12 1012.32 1012.55 1012.42 1012.49 1012.51 1012.59 1012.92 1012.68 1012.58 1011.63 1011.25 1010.91 1009.33 1007.56 1007.25 1007.29 1006.93 1006.70 1006.45 1006.21 1006.19 1006.10 1006.04 1006.10 1006.18 1006.31 1006.78 1007.28 1007.69 1008.12 1008.67 1009.22
1012.21 1012.53 1012.37 1012.20 1012.29 1012.22 1012.00 1011.96 1011.81 1011.77 1011.74 1011.96 1012.14 1012.43 1012.30 1012.49 1012.52 1012.57 1012.50 1012.16 1011.64 1011.34 1010.78 1009.62 1007.95 1007.48 1007.37 1007.42 1007.42 1007.29 1007.17 1006.93 1006.82 1006.70 1006.55 1006.60 1006.79 1007.01 1007.46 1007.97 1008.39 1008.92 1009.60 1010.11
1012.70 1012.43 1012.40 1012.22 1012.17 1011.97 1011.61 1011.44 1011.34 1011.48 1011.34 1011.58 1011.81 1012.18 1012.29 1012.26 1012.34 1012.23 1012.00 1011.54 1011.37 1010.68 1009.83 1008.58 1007.80 1007.84 1007.98 1008.06 1008.03 1007.82 1007.89 1007.83 1007.81 1007.80 1007.78 1007.85 1007.99 1008.35 1008.53 1008.73 1009.09 1009.64 1010.32 1010.81
1012.03 1012.01 1012.19 1012.01 1011.86 1011.75 1011.66 1011.46 1011.39 1011.41 1011.50 1011.73 1011.78 1011.74 1011.71 1011.79 1011.85 1011.69 1011.46 1011.23 1010.41 1009.67 1008.70 1008.20 1008.27 1008.48 1008.54 1008.48 1008.53 1008.58 1008.53 1008.52 1008.59 1008.73 1008.91 1009.19 1009.27 1009.20 1009.68 1009.93 1010.04 1010.44 1011.02 1011.52
1011.65 1011.71 1011.95 1011.78 1011.78 1011.75 1011.63 1011.50 1011.51 1011.47 1011.36 1011.35 1011.29 1011.31 1011.25 1011.02 1010.88 1010.90 1010.58 1010.28 1009.44 1008.63 1008.50 1008.61 1008.85 1009.01 1009.05 1009.10 1009.10 1009.09 1009.09 1009.07 1009.24 1009.56 1009.79 1009.99 1010.07 1010.12 1010.66 1010.92 1011.10 1011.45 1011.78 1012.22
1012.06 1012.28 1012.22 1012.17 1012.26 1011.92 1011.58 1011.51 1011.44 1011.35 1011.39 1011.30 1011.24 1011.10 1010.42 1010.26 1010.14 1009.98 1009.57 1009.19 1008.74 1008.70 1008.87 1008.97 1009.17 1009.41 1009.47 1009.43 1009.39 1009.46 1009.53 1009.60 1009.72 1009.97 1010.22 1010.49 1010.64 1010.82 1011.02 1011.38 1012.10 1012.24 1012.66 1013.00
Thickness
5431 5432 5436 5433 5432 5433 5431 5429 5432 5444 5443 5432 5443 5458 5461 5472 5476 5476 5471 5471 5481 5485 5491 5496 5500 5507 5514 5512 5514 5516 5515 5507 5513 5522 5517 5516 5521 5522 5522 5512 5515 5505 5500 5533
5413 5413 5414 5413 5413 5413 5410 5413 5415 5421 5419 5429 5429 5433 5446 5454 5458 5463 5464 5466 5471 5476 5474 5470 5485 5496 5503 5500 5502 5503 5503 5497 5502 5503 5504 5506 5508 5505 5504 5498 5497 5505 5498 5525
5395 5398 5396 5396 5395 5393 5391 5391 5400 5401 5405 5410 5418 5426 5432 5437 5445 5445 5448 5457 5454 5454 5457 5461 5465 5476 5487 5490 5492 5493 5490 5484 5492 5494 5494 5489 5493 5493 5493 5493 5480 5494 5509 5511
5375 5376 5377 5378 5374 5372 5372 5372 5390 5395 5397 5404 5404 5411 5424 5431 5430 5434 5437 5440 5443 5441 5438 5451 5454 5459 5471 5477 5480 5478 5477 5477 5470 5479 5476 5474 5482 5487 5485 5484 5486 5480 5513 5504
5355 5357 5355 5358 5357 5354 5355 5362 5369 5375 5381 5389 5398 5400 5407 5413 5424 5428 5430 5432 5438 5433 5433 5435 5442 5446 5451 5463 5463 5462 5456 5465 5445 5433 5459 5460 5460 5462 5460 5472 5475 5479 5492 5504
5337 5337 5338 5340 5339 5336 5337 5343 5348 5351 5370 5380 5385 5394 5408 5410 5416 5410 5423 5428 5427 5423 5428 5432 5438 5441 5447 5453 5454 5450 5447 5448 5440 5453 5450 5452 5458 5453 5465 5478 5480 5475 5477 5503
5322 5322 5322 5321 5322 5323 5325 5329 5330 5336 5351 5363 5377 5386 5390 5392 5398 5397 5416 5413 5407 5422 5422 5425 5429 5428 5435 5438 5443 5445 5437 5438 5436 5431 5440 5430 5468 5465 5466 5465 5473 5473 5478 5489
5308 5307 5308 5309 5311 5313 5313 5317 5317 5318 5334 5351 5364 5373 5383 5386 5392 5395 5398 5407 5408 5403 5405 5408 5412 5423 5431 5437 5439 5439 5438 5431 5417 5429 5441 5459 5463 5470 5466 5460 5476 5476 5478 5485
5297 5297 5297 5299 5300 5301 5302 5307 5308 5311 5320 5346 5355 5365 5367 5376 5384 5387 5396 5400 5400 5394 5392 5395 5406 5417 5433 5434 5435 5432 5430 5425 5418 5416 5423 5432 5456 5460 5458 5460 5465 5462 5467 5471
5287 5287 5289 5290 5292 5293 5294 5299 5301 5301 5314 5339 5339 5350 5359 5367 5377 5382 5389 5396 5392 5393 5389 5400 5408 5412 5405 5411 5427 5427 5416 5409 5416 5424 5422 5439 5452 5454 5452 5448 5467 5459 5458 5463
5273 5275 5277 5279 5283 5285 5287 5295 5297 5298 5309 5326 5333 5343 5349 5358 5365 5378 5383 5385 5385 5386 5393 5398 5403 5405 5404 5407 5427 5431 5428 5416 5410 5415 5414 5424 5451 5447 5446 5457 5452 5454 5456 5460
5263 5262 5262 5266 5271 5276 5281 5287 5292 5295 5301 5323 5330 5337 5348 5352 5360 5360 5367 5384 5392 5394 5392 5393 5400 5399 5403 5415 5411 5425 5417 5428 5422 5422 5439 5443 5443 5446 5449 5449 5448 5449 5453 5458
5259 5258 5258 5259 5262 5267 5274 5282 5287 5291 5297 5313 5323 5341 5349 5349 5358 5363 5365 5381 5389 5390 5393 5392 5394 5399 5398 5399 5407 5414 5418 5419 5421 5417 5438 5439 5447 5444 5444 5444 5440 5446 5453 5453
5258 5257 5259 5260 5260 5261 5266 5274 5283 5288 5297 5309 5336 5345 5349 5358 5362 5366 5370 5375 5379 5386 5390 5390 5388 5392 5394 5400 5406 5404 5416 5416 5414 5412 5418 5424 5438 5441 5445 5447 5447 5448 5451 5452
5256 5257 5259 5260 5259 5260 5261 5268 5280 5289 5293 5312 5325 5336 5357 5362 5369 5370 5372 5374 5378 5381 5383 5383 5386 5388 5382 5384 5387 5403 5411 5416 5412 5422 5431 5431 5443 5444 5445 5444 5445 5447 5444 5446
5257 5258 5260 5260 5259 5259 5254 5258 5279 5289 5294 5296 5320 5337 5349 5359 5364 5370 5374 5375 5377 5381 5385 5383 5382 5381 5385 5384 5391 5415 5417 5417 5419 5423 5430 5426 5435 5436 5439 5440 5444 5445 5444 5442
5260 5261 5261 5260 5259 5256 5259 5271 5287 5296 5296 5298 5318 5341 5351 5357 5354 5364 5369 5371 5375 5380 5379 5378 5379 5380 5379 5371 5398 5414 5408 5413 5414 5416 5413 5421 5428 5432 5437 5436 5439 5441 5443 5442
5263 5263 5263 5262 5262 5261 5269 5284 5290 5295 5300 5302 5322 5343 5351 5355 5357 5365 5364 5369 5371 5375 5378 5372 5376 5370 5371 5382 5412 5409 5410 5410 5412 5418 5417 5425 5430 5429 5430 5432 5433 5436 5437 5434
5265 5266 5266 5263 5266 5273 5285 5293 5296 5298 5300 5313 5330 5349 5358 5356 5355 5360 5364 5366 5366 5366 5370 5368 5370 5376 5376 5405 5406 5404 5405 5403 5416 5418 5417 5419 5419 5426 5428 5428 5430 5430 5429 5425
5268 5268 5270 5270 5284 5294 5297 5296 5298 5303 5314 5325 5335 5343 5357 5363 5362 5360 5363 5362 5372 5368 5377 5371 5373 5389 5403 5404 5407 5407 5407 5409 5414 5413 5419 5417 5416 5421 5424 5429 5428 5427 5424 5418
5276 5276 5281 5291 5298 5300 5303 5320 5325 5329 5333 5336 5346 5349 5359 5357 5365 5366 5362 5364 5361 5369 5377 5368 5381 5392 5402 5396 5402 5409 5413 5416 5417 5419 5422 5421 5423 5424 5421 5418 5417 5416 5412 5409
5291 5295 5297 5305 5308 5314 5326 5332 5333 5340 5352 5345 5348 5351 5354 5356 5355 5359 5352 5355 5352 5364 5366 5370 5382 5401 5399 5395 5400 5405 5408 5413 5414 5414 5418 5419 5420 5420 5415 5412 5410 5407 5403 5396
5303 5303 5311 5317 5318 5322 5329 5327 5342 5342 5344 5347 5349 5352 5353 5354 5351 5350 5354 5355 5360 5360 5369 5380 5399 5397 5394 5391 5394 5399 5399 5402 5405 5407 5409 5410 5410 5409 5406 5401 5396 5392 5386 5381
5310 5318 5315 5327 5319 5328 5340 5347 5349 5344 5347 5345 5349 5348 5348 5349 5348 5348 5355 5360 5356 5363 5373 5393 5396 5388 5386 5385 5387 5393 5391 5388 5391 5392 5392 5392 5392 5386 5384 5383 5380 5374 5369 5364
5326 5328 5326 5331 5333 5335 5335 5341 5345 5346 5348 5346 5350 5352 5357 5352 5352 5352 5355 5357 5365 5375 5385 5390 5380 5379 5379 5380 5382 5382 5381 5375 5380 5379 5374 5370 5371 5373 5366 5365 5367 5362 5356 5353
5332 5332 5336 5340 5343 5342 5341 5343 5345 5343 5346 5347 5350 5353 5356 5357 5356 5360 5363 5368 5373 5383 5379 5372 5369 5371 5371 5372 5372 5372 5372 5373 5371 5367 5365 5362 5360 5361 5354 5350 5349 5347 5347 5342
5329 5330 5328 5328 5325 5323 5340 5341 5341 5341 5343 5345 5347 5347 5356 5358 5363 5366 5377 5376 5381 5372 5366 5363 5363 5361 5363 5365 5367 5361 5363 5363 5362 5359 5356 5352 5349 5347 5350 5346 5338 5338 5334 5331